Location: Melbourne
(37.8170°S, 144.9670°E)
Time: 10:58:24
(UTC+11:00)

ADEOS Rocket - Visible Passes

Search period start: 25 February 2017 00:00
Search period end: 07 March 2017 00:00
Orbit: 859 x 1306 km, 98.7° (Epoch: 24 February)

Date Brightness Start Highest point End Pass type
(mag) Time Alt. Az. Time Alt. Az. Time Alt. Az.
25 Feb 4.4 03:03:32 30° SSE 03:03:32 30° SSE 03:06:26 10° S visible
25 Feb 5.0 04:50:30 10° SW 04:50:30 10° SW 04:50:33 10° SW visible
26 Feb 5.1 02:14:02 18° SE 02:14:02 18° SE 02:16:24 10° SSE visible
26 Feb 4.5 04:00:59 22° SW 04:00:59 22° SW 04:02:59 10° SSW visible
27 Feb 4.5 03:11:28 28° S 03:11:28 28° S 03:14:07 10° S visible
28 Feb 5.0 02:21:58 19° SE 02:21:58 19° SE 02:24:18 10° SSE visible
28 Feb 4.7 04:08:55 18° SW 04:08:55 18° SW 04:10:29 10° SSW visible
01 Mar 4.6 03:19:24 26° S 03:19:24 26° S 03:21:47 10° S visible
02 Mar 5.0 02:29:53 20° SSE 02:29:53 20° SSE 02:32:10 10° S visible
02 Mar 4.9 04:16:51 15° SW 04:16:51 15° SW 04:17:57 10° SSW visible
03 Mar 5.6 01:40:22 10° SE 01:40:22 10° SE 01:40:25 10° SE visible
03 Mar 4.7 03:27:20 23° SSW 03:27:20 23° SSW 03:29:26 10° SSW visible
04 Mar 5.0 02:37:49 21° SSE 02:37:49 21° SSE 02:40:00 10° S visible
04 Mar 5.0 04:24:46 13° SW 04:24:46 13° SW 04:25:22 10° SW visible
05 Mar 5.5 01:48:17 12° SE 01:48:17 12° SE 01:49:08 10° SSE visible
05 Mar 4.8 03:35:15 21° SSW 03:35:15 21° SSW 03:37:04 10° SSW visible
06 Mar 5.0 02:45:44 21° SSE 02:45:44 21° SSE 02:47:48 10° S visible
06 Mar 5.2 04:32:41 10° SW 04:32:41 10° SW 04:32:45 10° SW visible
